Home   Weather   Hanoi   Past weeks

Flag for Vietnam Past Weather in Hanoi, Vietnam — Yesterday and Last 2 Weeks

Now
75 °F

Partly sunny.


Feels Like: 76 °F
Forecast: 72 / 84 °F
Wind: 9 mph from Southeast

Location: Ha Noi Airport

Current Time: Feb 20, 2017 at 10:58:33 am

Latest Report: Feb 20, 2017 at 10:00 am


Visibility: N/A

Pressure: 29.89 "Hg

Humidity: 78%

Dew Point: 68 °F

Location of HanoiLocation

Past Weather in Hanoi — Graph

°F

Hanoi Temperature Yesterday

Maximum temperature yesterday: 81 °F (at 12:30 pm)
Minimum temperature yesterday: 63 °F (at 2:00 am)
Average temperature yesterday: 71 °F

High & Low Weather Summary for the Past Weeks

 TemperatureHumidityPressure
High81 °F (Feb 7, 1:30 pm)100% (Feb 5, 9:00 am)30.42 "Hg (Feb 5, 9:00 am)
Low55 °F (Feb 13, 4:30 am)37% (Feb 12, 10:30 am)29.80 "Hg (Feb 6, 4:30 pm)
Average67 °F75%30.11 "Hg
* Reported Feb 5 9:00 am — Feb 20 9:30 am, Hanoi, Weather by CustomWeather, © 2017

Note: Actual official high and low records may vary slightly from our data, if they occured in-between our weather recording intervals... More about our weather records

Advertising

Hanoi Weather History for the Previous 24 Hours

Scroll right to see more
 ConditionsComfort  
Time TempWeatherWind HumidityBarometerVisibility
9:30 am
Mon, Feb 20
72 °FPartly sunny.9 mph94%29.89 "HgN/A
9:00 am73 °FPartly sunny.12 mph89%29.89 "HgN/A
8:30 am72 °FPartly sunny.9 mph88%29.89 "HgN/A
8:00 am72 °FPartly sunny.10 mph88%29.86 "HgN/A
7:30 am70 °FPartly sunny.8 mph94%29.86 "HgN/A
7:00 am70 °FPartly sunny.9 mph94%29.86 "HgN/A
6:30 am70 °FScattered clouds.8 mph100%29.83 "Hg6 mi
6:00 am70 °FPassing clouds.9 mph100%29.83 "HgN/A
5:30 am70 °FPassing clouds.8 mph100%29.83 "Hg6 mi
5:00 am70 °FPassing clouds.9 mph94%29.80 "Hg6 mi
4:30 am70 °FPassing clouds.9 mph94%29.80 "Hg6 mi
4:00 am70 °FPassing clouds.10 mph94%29.80 "Hg6 mi
3:30 am70 °FPassing clouds.9 mph94%29.80 "Hg6 mi
3:00 am70 °FPassing clouds.8 mph94%29.80 "HgN/A
2:30 am68 °FPassing clouds.10 mph100%29.80 "HgN/A
2:00 am68 °FPassing clouds.13 mph100%29.83 "HgN/A
1:30 am68 °FPassing clouds.12 mph100%29.83 "HgN/A
1:00 am68 °FPassing clouds.12 mph100%29.83 "HgN/A
12:30 am70 °FPassing clouds.12 mph94%29.83 "HgN/A
12:00 am68 °FClear.10 mph100%29.83 "Hg10 mi
11:30 pm
Sun, Feb 19
68 °FClear.10 mph94%29.86 "Hg10 mi
11:00 pm70 °FClear.12 mph88%29.86 "Hg10 mi
10:30 pm70 °FPassing clouds.13 mph83%29.86 "HgN/A
10:00 pm70 °FClear.10 mph83%29.86 "Hg10 mi
9:30 pm70 °FClear.10 mph83%29.86 "Hg10 mi
9:00 pm70 °FClear.10 mph78%29.86 "Hg10 mi
8:30 pm72 °FClear.10 mph73%29.86 "Hg10 mi
8:00 pm72 °FClear.13 mph69%29.86 "Hg10 mi
7:30 pm73 °FPassing clouds.12 mph65%29.86 "HgN/A
7:00 pm73 °FClear.15 mph65%29.83 "Hg10 mi
6:30 pm75 °FClear.13 mph57%29.83 "Hg10 mi
6:00 pm77 °FClear.13 mph51%29.83 "Hg10 mi
5:30 pm77 °FSunny.14 mph54%29.83 "Hg10 mi
5:00 pm79 °FSunny.12 mph54%29.83 "Hg10 mi
4:30 pm79 °FSunny.13 mph51%29.83 "Hg10 mi
4:00 pm81 °FPassing clouds.9 mph51%29.83 "HgN/A
3:30 pm81 °FPassing clouds.10 mph51%29.83 "HgN/A
3:00 pm81 °FPassing clouds.8 mph51%29.86 "HgN/A
2:30 pm81 °FSunny.9 mph48%29.86 "Hg10 mi
2:00 pm81 °FPassing clouds.8 mph48%29.89 "HgN/A
1:30 pm79 °FPassing clouds.7 mph51%29.92 "HgN/A
1:00 pm79 °FPassing clouds.8 mph51%29.95 "HgN/A
12:30 pm81 °FPassing clouds.6 mph48%29.98 "HgN/A
12:00 pm79 °FPassing clouds.7 mph51%29.98 "HgN/A
11:30 am77 °FClear.6 mph54%30.01 "Hg6 mi
11:00 am75 °FClear.7 mph61%30.04 "Hg6 mi
10:30 am73 °FFog.5 mph69%30.07 "Hg3 mi
10:00 am72 °FFog.2 mph78%30.07 "Hg2 mi
Weather by CustomWeather, © 2017

See weather overviewHow to use our weather pages